| time (UTC) | temp C | wind direction | speed KPH | gust KPH | rain 1hr cm | rain 24hr cm | rain mn cm | humidity % | barometer mb |
| 20260505003044 | 24 | 299 | 3.2 | 12.9 | 0.00 | 0.00 | 0.00 | 32 | 1005.7 |
| 20260505001543 | 24 | 315 | 6.4 | 16.1 | 0.00 | 0.00 | 0.00 | 29 | 1005.7 |
| 20260505000054 | 24 | 311 | 11.3 | 20.9 | 0.00 | 0.00 | 0.00 | 27 | 1005.9 |
| 20260504234547 | 24 | 303 | 3.2 | 11.3 | 0.00 | 0.00 | 0.00 | 30 | 1005.9 |
| 20260504233100 | 24 | 313 | 3.2 | 17.7 | 0.00 | 0.00 | 0.00 | 29 | 1005.9 |
| 20260504231540 | 24 | 315 | 3.2 | 12.9 | 0.00 | 0.00 | 0.00 | 28 | 1006.0 |
| 20260504230038 | 24 | 41 | 4.8 | 12.9 | 0.00 | 0.00 | 0.00 | 30 | 1006.1 |
| 20260504224539 | 24 | 305 | 6.4 | 11.3 | 0.00 | 0.00 | 0.00 | 31 | 1006.3 |
| 20260504223053 | 24 | 58 | 4.8 | 16.1 | 0.00 | 0.00 | 0.00 | 30 | 1006.4 |
| 20260504221536 | 25 | 346 | 6.4 | 16.1 | 0.00 | 0.00 | 0.00 | 30 | 1006.6 |
| 20260504220031 | 24 | 296 | 4.8 | 12.9 | 0.00 | 0.00 | 0.00 | 32 | 1006.7 |
| 20260504214531 | 23 | 346 | 3.2 | 17.7 | 0.00 | 0.00 | 0.00 | 33 | 1006.8 |
| 20260504213040 | 23 | 317 | 8.0 | 19.3 | 0.00 | 0.00 | 0.00 | 30 | 1006.9 |
| 20260504211533 | 23 | 308 | 8.0 | 16.1 | 0.00 | 0.00 | 0.00 | 30 | 1006.9 |
| 20260504210026 | 24 | 305 | 4.8 | 16.1 | 0.00 | 0.00 | 0.00 | 33 | 1007.1 |
| 20260504204535 | 24 | 38 | 6.4 | 11.3 | 0.00 | 0.00 | 0.00 | 29 | 1007.1 |
| 20260504203024 | 24 | 346 | 8.0 | 17.7 | 0.00 | 0.00 | 0.00 | 31 | 1007.3 |
| 20260504201519 | 23 | 296 | 4.8 | 14.5 | 0.00 | 0.00 | 0.00 | 36 | 1007.3 |
| 20260504200016 | 23 | 299 | 4.8 | 16.1 | 0.00 | 0.00 | 0.00 | 39 | 1007.4 |
| 20260504194515 | 23 | 303 | 8.0 | 17.7 | 0.00 | 0.00 | 0.00 | 42 | 1007.5 |
| 20260504193012 | 22 | 288 | 4.8 | 11.3 | 0.00 | 0.00 | 0.00 | 39 | 1007.6 |
| 20260504191511 | 22 | 226 | 6.4 | 12.9 | 0.00 | 0.00 | 0.00 | 40 | 1007.6 |
| 20260504190008 | 22 | 282 | 8.0 | 12.9 | 0.00 | 0.00 | 0.00 | 42 | 1007.8 |
| 20260504184509 | 22 | 294 | 4.8 | 8.0 | 0.00 | 0.00 | 0.00 | 37 | 1007.8 |
| 20260504183007 | 21 | 285 | 4.8 | 11.3 | 0.00 | 0.00 | 0.00 | 43 | 1007.9 |
| 20260504181511 | 21 | 285 | 6.4 | 12.9 | 0.00 | 0.00 | 0.00 | 41 | 1007.9 |
| 20260504180003 | 21 | 294 | 4.8 | 9.7 | 0.00 | 0.00 | 0.00 | 44 | 1007.9 |
| 20260504174503 | 21 | 308 | 3.2 | 9.7 | 0.00 | 0.00 | 0.00 | 40 | 1008.0 |
| 20260504173102 | 21 | 260 | 4.8 | 9.7 | 0.00 | 0.00 | 0.00 | 42 | 1007.9 |
| 20260504171557 | 20 | 274 | 4.8 | 9.7 | 0.00 | 0.00 | 0.00 | 43 | 1008.0 |
| 20260504081558 | 10 | 79 | 6.4 | 8.0 | 0.00 | 0.00 | 0.00 | 65 | 1008.3 |
| 20260504044548 | 12 | 80 | 4.8 | 6.4 | 0.00 | 0.00 | 0.00 | 60 | 1008.3 |
| 20260504043043 | 12 | 79 | 4.8 | 6.4 | 0.00 | 0.00 | 0.00 | 60 | 1008.4 |
| 20260504041542 | 12 | 74 | 3.2 | 6.4 | 0.00 | 0.00 | 0.00 | 61 | 1008.1 |
| 20260504040059 | 12 | 83 | 4.8 | 6.4 | 0.00 | 0.00 | 0.00 | 61 | 1008.2 |
| 20260504034605 | 13 | 80 | 4.8 | 4.8 | 0.00 | 0.00 | 0.00 | 59 | 1008.0 |
| 20260504033041 | 13 | 82 | 4.8 | 6.4 | 0.00 | 0.00 | 0.00 | 59 | 1007.8 |
| 20260504031540 | 13 | 97 | 4.8 | 6.4 | 0.00 | 0.00 | 0.00 | 59 | 1007.8 |
| 20260504030053 | 15 | 90 | 3.2 | 4.8 | 0.00 | 0.00 | 0.00 | 57 | 1007.7 |
| 20260504024539 | 17 | 54 | 3.2 | 4.8 | 0.00 | 0.00 | 0.00 | 51 | 1007.7 |
| 20260504023038 | 20 | 57 | 4.8 | 6.4 | 0.00 | 0.00 | 0.00 | 40 | 1007.8 |
| 20260504021538 | 21 | 85 | 4.8 | 6.4 | 0.00 | 0.00 | 0.00 | 37 | 1007.8 |
| 20260504020034 | 22 | 49 | 8.0 | 11.3 | 0.00 | 0.00 | 0.00 | 32 | 1008.0 |
| 20260504014534 | 23 | 23 | 1.6 | 8.0 | 0.00 | 0.00 | 0.00 | 33 | 1008.2 |
| 20260504013045 | 23 | 350 | 3.2 | 8.0 | 0.00 | 0.00 | 0.00 | 32 | 1008.4 |
| 20260504011531 | 23 | 38 | 6.4 | 11.3 | 0.00 | 0.00 | 0.00 | 29 | 1008.5 |
| 20260504010028 | 23 | 40 | 6.4 | 12.9 | 0.00 | 0.00 | 0.00 | 31 | 1008.6 |
| 20260504004528 | 23 | 6 | 4.8 | 12.9 | 0.00 | 0.00 | 0.00 | 31 | 1008.8 |